Terminal Aerodrome Forecast
Issued by NWS St Louis, MO

Home | Current Version | Previous Version | Text Only | Print | Product List | Glossary On
Versions: 1 2 3 4 5 6 7 8 9 10 11 12 13 14 15 16 17 18 19 20 21 22 23 24 25 26 27 28 29 30 31 32 33
000
FTUS43 KLSX 271735
TAFSTL
TAF
KSTL 271735Z 2718/2824 17014G24KT P6SM OVC020
     FM272000 17013G21KT P6SM -SHRA VCTS BKN020CB OVC100
     FM280100 17011KT P6SM VCSH BKN050
     FM280900 17012KT P6SM OVC070=

USA.gov is the U.S. government's official web portal to all federal, state and local government web resources and services.